Regional Weather Roundup
Issued by NWS Kansas City/Pleasant Hill, MO

Home | Current Version | Previous Version | Graphics & Text | Print | Product List | Glossary Off
Versions: 1 2 3 4 5 6 7 8 9 10 11 12 13 14 15 16 17 18 19 20 21 22 23 24 25 26 27 28 29 30 31 32 33 34 35 36 37 38 39 40 41 42 43 44 45 46 47 48 49 50

000
ASUS43 KEAX 241910
RWREAX

WEATHER ROUNDUP FOR EASTERN KANSAS AND NORTHWEST MISSOURI
NATIONAL WEATHER SERVICE KANSAS CITY/PLEASANT HILL MO
200 PM CDT FRI OCT 24 2014

KSZ040-057-103>105-MOZ028-029-037-043-242000-
...KANSAS CITY METROPOLITAN AREA...

CITY           SKY/WX    TMP DP  RH WIND       PRES   REMARKS
K.C. INTL      CLOUDY    72  63  73 S14       29.98F
K.C. DOWNTOWN  CLOUDY    75  62  64 SW12      29.98F
LEES SUMMIT    PTSUNNY   73  61  65 SW14G20   30.00F
OLATHE - IXD   CLOUDY    73  62  68 SW14      30.01F
OLATHE - OJC   CLOUDY    73  63  70 SW9       30.00F
LAWRENCE       CLOUDY    73  62  68 SW7       29.99F

$$

MOZ001>008-011>017-020>025-030>033-038>040-044>046-053-054-242000-
...NORTHERN AND CENTRAL MISSOURI...

CITY           SKY/WX    TMP DP  RH WIND       PRES   REMARKS
ST. JOSEPH     CLOUDY    72  62  71 SW13      29.96F
MOSBY          MOCLDY    72  61  68 S7        29.97F
WHITEMAN AFB   MOSUNNY   71  60  66 SW12      30.01F
CLINTON        PTSUNNY   72  61  68 S7        30.04F HAZE
SEDALIA        PTSUNNY   72  59  63 S14       30.04F
WARSAW         NOT AVBL
MARSHALL       PTSUNNY   75  61  60 S12       30.00F
CHILLICOTHE      N/A     69  61  75 S9        29.98F
MOBERLY        PTSUNNY   72  59  64 S9        30.02
KIRKSVILLE     CLOUDY    64  61  90 S13       29.99F FOG

$$

MOZ041-047>049-056>058-063>065-088>090-097-242000-
...EASTERN AND SOUTHERN MISSOURI...

CITY           SKY/WX    TMP DP  RH WIND       PRES   REMARKS
ST. LOUIS INTL PTSUNNY   72  52  49 S6        30.06F
SPIRIT OF STL  PTSUNNY   71  52  50 VRB6      30.05F
COLUMBIA       PTSUNNY   71  60  68 S10       30.04F
JEFFERSON CITY PTSUNNY   72  58  61 SE9       30.04F
MEXICO         PTSUNNY   72  63  73 SW9       30.04
HANNIBAL       PTSUNNY   70  57  64 S7        30.03F
ROLLA          PTSUNNY   67  57  70 SW7       30.07F
LEBANON        PTSUNNY   73  57  56 SW7       30.08F
OSAGE BEACH    PTSUNNY   73  55  53 SW7       30.06F
SPRINGFIELD    PTSUNNY   73  59  61 W8        30.08F
BRANSON        CLOUDY    77  59  53 NW8       30.11F
NEVADA         PTSUNNY   73  61  64 SW9       30.05F
JOPLIN         CLOUDY    74  60  61 SW10      30.07F
WEST PLAINS    MOSUNNY   70  56  61 W8        30.11F

$$

IAZ060-094-KSZ022-034>040-054-083-096-NEZ052-066-093-242000-
...KANSAS...SOUTHEAST NEBRASKA AND IOWA...

CITY           SKY/WX    TMP DP  RH WIND       PRES   REMARKS
TOPEKA         CLOUDY    75  63  66 SW9       29.98F
MANHATTAN      CLOUDY    76  63  64 SW13      29.97F
EMPORIA        CLOUDY    74  62  66 SW15      30.01F
CHANUTE        CLOUDY    72  61  68 S10       30.04F
WICHITA        MOSUNNY   79  62  56 SW12      30.02F
OMAHA          CLOUDY    72  59  63 SW6       29.91F
LINCOLN        CLOUDY    72  57  59 SW8       29.93F
FALLS CITY     CLOUDY    75  63  66 SW15      29.92F
LAMONI         CLOUDY    62  60  93 S14       29.94F FOG
DES MOINES     CLOUDY    64  60  87 S9        29.91F FOG

$$




USA.gov is the U.S. government's official web portal to all federal, state and local government web resources and services.